Location: Unspecified
(47.6578°N, 23.5640°E)
Time: 06:39:16
(UTC+02:00)

ISS - Pass Details

Date: 13 December 2017
Orbit: 403 x 407 km, 51.6° (Epoch: 12 December)

Event Time Altitude Azimuth Distance (km) Brightness Sun altitude
Rises 17:27:33 0° 293° (WNW) 2,332 0.7 -8.6°
Maximum altitude 17:32:56 72° 21° (NNE) 432 -3.9 -9.5°
Drops below altitude 10° 17:36:12 10° 106° (ESE) 1,462 -1.5 -10.0°
Enters shadow 17:36:25 - 106° (ESE) 1,547 -1.3 -10.0°
